• Join FlightAware (Why Join?)
  • Login
  • US Flag GB Flag 
07:56 EST


 

Airport Tracker/Info


-or-


 

Live Flight TrackerFlight Track Log ✈ EJM685 ✈ 01-Jul-2013 ✈ KLEX - KSTP

Flight Track Log - Related Links

Times and Time Zones

All times are in EDT time to prevent confusion due to time zone crossing. See the EJM685 flight status page for this flight to view local times or setup timezone preferences in your user account.

Time Position Orientation Groundspeed Altitude Reporting Facility
EDT Latitude Longitude Course Direction KTS MPH feet Rate Location/Type
11:08 37.9925 -84.6925 246° West 273 314 5,100  Level Indianapolis Center
11:09 38.0564 -84.7725 315° West 284 327 10,200 3,561 Climbing Indianapolis Center
11:10 38.1322 -84.8461 323° Northwest 358 412 12,400 2,634 Climbing Indianapolis Center
11:11 38.2178 -84.9269 323° Northwest 378 435 15,600 3,171 Climbing Indianapolis Center
11:12 38.3050 -85.0133 322° Northwest 390 449 18,900 3,097 Climbing Indianapolis Center
11:13 38.3967 -85.1028 323° Northwest 411 473 22,000 2,146 Climbing Indianapolis Center
11:14 38.4925 -85.1947 323° Northwest 426 490 23,300 2,000 Climbing Indianapolis Center
11:16 38.5953 -85.2969 322° Northwest 428 493 26,100 2,565 Climbing Indianapolis Center
11:17 38.6911 -85.3933 322° Northwest 446 513 28,600 2,195 Climbing Indianapolis Center
11:18 38.8100 -85.4697 333° Northwest 481 554 30,600 2,049 Climbing Indianapolis Center
11:19 38.9361 -85.5386 337° Northwest 493 567 32,800 2,341 Climbing Indianapolis Center
11:20 39.0597 -85.6203 333° Northwest 499 574 35,400 2,341 Climbing Indianapolis Center
11:21 39.1819 -85.7586 319° Northwest 488 562 37,600 2,177 Climbing Indianapolis Center
11:22 39.2828 -85.8764 318° Northwest 490 564 39,900 1,951 Climbing Indianapolis Center
11:23 39.3831 -85.9928 318° Northwest 487 560 41,600 1,366 Climbing Indianapolis Center
11:24 39.4822 -86.1094 318° Northwest 482 555 42,700 1,122 Climbing Indianapolis Center
11:25 39.5853 -86.2294 318° Northwest 492 566 43,900 1,317 Climbing Indianapolis Center
11:26 39.6942 -86.3561 318° Northwest 496 571 45,400 1,161 Climbing Indianapolis Center
11:27 39.7925 -86.4731 318° Northwest 485 558 46,300 683 Climbing Indianapolis Center
11:28 39.8922 -86.5906 318° Northwest 481 554 46,800 341 Climbing Indianapolis Center
11:29 39.9919 -86.7075 318° Northwest 482 555 47,000 97 Climbing Indianapolis Center
11:30 40.1111 -86.7906 332° Northwest 487 560 47,000  Level Indianapolis Center
11:31 40.2094 -86.8528 334° Northwest 493 567 47,000  Level Chicago Center
11:32 40.3333 -86.9292 335° Northwest 493 567 47,000  Level Chicago Center
11:34 40.5789 -87.0817 335° Northwest 490 564 47,000  Level Chicago Center
11:35 40.7031 -87.1456 339° North 484 557 47,000  Level Chicago Center
11:36 40.8553 -87.2247 339° North 489 563 47,000  Level Chicago Center
11:37 40.9842 -87.2914 339° North 497 572 47,000  Level Chicago Center
11:38 41.1108 -87.3583 338° Northwest 493 567 47,000  Level Chicago Center
11:39 41.2383 -87.4239 339° North 495 570 47,000  Level Chicago Center
11:40 41.3633 -87.4908 338° Northwest 490 564 47,000  Level Chicago Center
11:41 41.5131 -87.5697 338° Northwest 491 565 47,000  Level Chicago Center
11:42 41.6381 -87.6369 338° Northwest 492 566 47,000  Level Chicago Center
11:43 41.7625 -87.7044 338° Northwest 490 564 47,000  Level Chicago Center
11:44 41.8886 -87.7708 339° North 493 567 47,000  Level Chicago Center
11:45 42.0144 -87.8394 338° Northwest 493 567 47,000  Level Chicago Center
11:46 42.1664 -87.9214 338° Northwest 494 568 47,000  Level Chicago Center
11:48 42.3775 -88.1589 320° Northwest 490 564 47,000  Level Chicago Center
11:49 42.4747 -88.2897 315° West 490 564 47,000  Level Chicago Center
11:50 42.5706 -88.4189 315° West 486 559 47,000  Level Chicago Center
11:51 42.6653 -88.5469 315° West 481 554 47,000  Level Chicago Center
11:52 42.7761 -88.6978 315° West 480 552 47,000  Level Chicago Center
11:53 42.8725 -88.8275 315° West 484 557 47,000  Level Chicago Center
11:54 42.9686 -88.9586 315° West 485 558 47,000  Level Chicago Center
11:55 43.0642 -89.0900 315° West 484 557 47,000 -435 Level Chicago Center
11:56 43.1597 -89.2208 315° West 483 556 46,100 -1,210 Descending Chicago Center
11:57 43.2564 -89.3542 315° West 488 562 44,500 -1,597 Descending Chicago Center
11:58 43.3519 -89.4869 315° West 487 560 42,800 -1,887 Descending Chicago Center
11:59 43.4594 -89.6400 314° West 477 549 40,600 -1,935 Descending Chicago Center
12:00 43.5550 -89.7692 316° Northwest 477 549 38,800 -1,258 Descending Chicago Center
12:02 43.6597 -89.8831 322° Northwest 477 549 38,000 -387 Descending Chicago Center
12:03 43.7683 -89.9958 323° Northwest 484 557 38,000  Level Chicago Center
12:04 43.8736 -90.1089 322° Northwest 480 552 38,000 -435 Level Chicago Center
12:05 43.9769 -90.2200 322° Northwest 471 542 37,100 -1,258 Descending Chicago Center
12:06 44.0925 -90.3472 322° Northwest 468 539 35,400 -1,500 Descending Chicago Center
12:07 44.1644 -90.4900 305° West 462 532 34,000 -677 Descending Chicago Center
12:08 44.2272 -90.6431 300° West 461 531 34,000  Level Chicago Center
12:09 44.3164 -90.8672 299° West 470 541 34,000 -696 Level Minneapolis Center
12:10 44.3811 -91.0267 300° West 471 542 32,400 -2,032 Descending Minneapolis Center
12:11 44.4422 -91.1828 299° West 465 535 29,800 -3,194 Descending Minneapolis Center
12:12 44.5022 -91.3333 299° West 452 520 25,800 -3,774 Descending Minneapolis Center
12:13 44.5606 -91.4839 299° West 445 512 22,000 -3,742 Descending Minneapolis Center
12:15 44.6817 -91.7931 299° West 412 474 14,200 -3,369 Descending Minneapolis Center
12:16 44.7322 -91.9225 299° West 382 440 11,500 -1,968 Descending Minneapolis Center
12:17 44.7742 -92.0333 298° West 321 369 10,100 -1,355 Descending Minneapolis Center
12:18 44.8094 -92.1244 299° West 269 310 8,700 -1,355 Descending Minneapolis Center
12:19 44.8450 -92.2217 297° West 279 321 7,300 -1,306 Descending Minneapolis Center
12:20 44.8872 -92.3347 298° West 274 315 6,000 -919 Descending Minneapolis Center
12:21 44.9000 -92.4389 280° West 275 316 5,400 -919 Descending Minneapolis Center
12:22 44.9056 -92.5425 274° West 268 308 4,100 -1,065 Descending Minneapolis Center
12:23 44.9117 -92.6481 275° West 270 311 3,200 -774 Descending Minneapolis Center
12:24 44.9339 -92.7375 289° West 252 290 2,500 -339 Descending Minneapolis Center
12:26 44.9619 -92.8219 295° West 241 277 2,500  Level Minneapolis Center
12:27 44.9800 -92.9167 285° West 211 243 2,500 -48 Level Minneapolis Center
12:28 45.0039 -92.9728 301° West 182 209 2,400 -97 Descending Minneapolis Center
12:29 45.0186 -93.0222 293° West 165 190 2,300 -242 Descending Minneapolis Center
12:30 44.9967 -93.0761 240° Southwest 157 181 1,900 -532 Descending Minneapolis Center
12:31 44.9628 -93.0881 194° South 136 157 1,200 -528 Descending Minneapolis Center
12:32 44.9275 -93.0525 144° Southeast 136 157 800 -381 Descending Minneapolis Center
12:34 44.9333 -93.0500 125° Southeast  Level FlightAware Approximate